Location: Church Tower
(37.7144°N, 119.6316°W)
Time: 19:55:12
(UTC+00:00)

Iridium 4 Rocket - Pass Details

Date: 15 November 2025
Orbit: 579 x 888 km, 86.9° (Epoch: 08 December)

Event Time Altitude Azimuth Distance (km) Brightness Sun altitude
Exits shadow 12:27:00 37° 160° (SSE) 908 4.0 -26.1°
Drops below altitude 10° 12:29:37 10° 172° (S) 1,907 5.7 -25.6°
Sets 12:31:50 0° 174° (S) 2,826 6.6 -25.1°
